Temp
10 10 9 9 9 9 9 9 9 10 9 9 9 9 9 9 9 9 9 9 9 9 9 9 9 9 8 9 9 9 9 9 9 9 9 9 9 9 9 9 9 9 9 9 9 9 9 9 8 8 8 8 8 8 8 8 9 9 9 9 9 8 8 8 8 8 8 9 9 9 9 9 9 9 9 9 9 9 9 10 10 9 9 10 10
10 10 10 10 9 9 9 9 9 10 9 9 9 9 9 9 9 9 9 9 9 9 9 9 8 8 8 9 9 9 9 9 9 9 9 9 9 9 9 9 9 9 9 9 9 9 9 9 9 8 8 8 8 8 8 8 9 9 9 9 9 8 8 8 8 8 8 8 8 8 9 9 9 9 9 9 9 9 9 9 10 9 9 9 10
10 10 10 10 9 9 9 10 10 9 9 9 9 9 9 9 9 9 9 9 9 9 9 8 8 8 8 9 9 9 9 9 9 9 9 9 9 9 9 9 9 9 9 9 9 9 9 9 9 8 8 8 8 8 8 9 9 9 9 9 9 9 8 8 8 8 8 8 8 8 8 8 9 9 9 9 9 9 9 9 9 9 9 9 10
10 10 10 9 9 9 10 10 9 9 9 9 9 9 9 9 9 9 9 9 9 9 8 8 8 8 9 9 9 9 9 9 9 9 9 9 9 9 9 9 9 9 9 9 9 9 9 9 9 8 8 8 8 8 8 9 9 9 9 9 9 9 8 8 8 8 8 8 8 8 8 8 8 8 8 9 9 9 9 9 9 9 9 9 9
10 10 10 9 9 9 10 10 9 9 9 9 9 9 9 9 9 9 9 9 9 8 8 8 8 8 9 9 9 9 9 9 9 9 9 9 9 9 9 9 9 9 9 9 9 9 9 9 8 8 8 8 8 8 8 9 9 9 9 9 9 9 9 8 8 8 8 8 8 8 8 8 8 8 8 8 8 9 9 9 9 9 9 9 9
10 10 9 9 9 9 10 10 9 9 9 9 9 9 9 9 9 9 9 9 8 8 8 8 8 8 8 9 9 9 9 9 9 9 9 9 9 9 9 9 9 9 9 9 9 9 9 9 9 8 8 8 8 8 8 9 8 9 9 9 9 9 9 8 8 8 8 8 8 8 8 8 8 8 8 8 8 8 9 9 9 9 9 9 9
9 9 10 10 9 10 10 10 9 9 9 9 9 9 9 9 9 9 9 8 8 8 8 8 8 8 8 8 8 9 9 9 9 9 9 9 9 9 9 9 9 9 9 9 9 9 9 9 9 8 8 8 8 8 8 8 8 8 9 9 9 9 9 8 8 8 8 8 8 8 8 8 8 8 8 8 8 8 8 9 9 9 9 9 9
9 10 10 10 10 10 10 10 9 9 9 9 9 9 9 9 9 9 8 8 8 8 8 8 8 8 8 8 8 9 9 9 9 9 9 9 9 9 9 9 9 9 9 9 9 9 9 9 8 8 8 8 8 8 8 8 8 8 8 9 9 9 8 8 8 8 8 8 8 8 8 8 8 8 8 8 8 8 8 8 9 9 9 9 9
9 10 10 10 10 10 10 10 9 9 9 9 9 9 9 9 9 9 8 8 8 8 8 8 8 8 8 8 8 8 8 9 9 9 9 9 9 9 9 9 9 9 8 8 8 9 9 9 8 8 8 8 9 9 8 8 8 8 8 8 9 9 8 8 8 8 8 8 8 8 8 8 8 8 8 8 8 8 8 8 8 8 8 8 9
9 9 10 10 10 10 10 10 9 9 9 9 9 9 9 9 9 8 8 8 8 8 8 8 8 8 8 8 8 8 8 9 9 9 9 9 9 9 9 8 8 8 8 8 8 9 9 9 8 8 8 9 9 9 8 8 8 8 8 8 9 9 9 8 8 8 8 8 8 8 8 8 8 8 8 8 8 8 8 8 8 8 8 8 8
9 9 10 10 10 10 10 9 9 9 9 9 9 9 9 9 8 8 8 8 8 8 8 8 8 8 8 8 8 8 8 9 9 9 9 9 9 9 8 8 8 8 8 8 8 8 8 8 9 8 8 8 8 8 8 8 8 8 8 8 8 9 9 9 8 8 8 8 8 8 8 8 8 8 8 8 8 8 8 8 8 8 8 8 8
9 10 10 10 9 9 9 9 9 9 9 9 9 9 9 9 8 8 8 8 8 8 8 8 8 8 8 8 8 8 8 9 9 9 9 9 9 9 8 8 8 8 8 8 8 8 8 8 8 8 8 8 8 8 8 8 8 8 8 8 8 8 9 9 8 8 8 8 8 8 8 8 8 8 8 8 8 8 8 8 8 8 7 7 8
9 10 10 10 9 9 9 9 9 9 9 9 9 9 9 8 8 8 8 8 8 8 8 8 8 8 8 8 8 8 8 9 9 9 9 9 9 9 8 8 8 8 8 8 8 8 8 8 8 8 8 9 8 8 8 8 8 8 8 8 8 8 8 8 8 8 8 8 8 8 8 7 8 8 7 7 8 8 8 8 8 8 7 7 7
9 10 10 10 9 9 9 9 9 9 9 9 9 9 8 8 8 8 8 8 8 8 8 8 8 8 8 8 8 8 8 9 9 9 9 8 8 8 8 8 8 8 8 8 8 8 8 8 8 8 8 8 8 8 8 8 8 8 8 8 8 8 8 8 8 8 8 8 8 8 8 8 8 8 7 7 7 7 7 8 8 8 7 7 7
9 9 10 10 10 9 9 9 9 9 9 9 9 9 8 8 8 8 8 8 8 8 8 8 8 8 8 8 8 9 9 9 9 8 8 8 8 8 8 8 8 8 8 8 8 8 8 8 8 8 8 8 8 8 8 8 8 8 8 8 8 8 8 8 8 8 8 8 8 8 8 8 8 8 8 8 7 7 7 7 8 8 8 7 7
10 9 9 10 9 9 9 9 9 9 9 9 9 8 8 8 8 8 8 8 8 8 8 8 8 8 8 8 8 9 9 9 8 8 8 8 8 8 8 8 8 8 8 8 8 8 8 8 8 8 8 8 8 8 8 8 8 8 8 8 8 8 8 8 8 8 8 8 8 8 8 8 8 8 8 8 8 8 7 7 7 8 8 7 7
10 9 9 9 9 9 9 9 9 9 9 9 9 9 8 8 8 8 8 8 8 8 8 8 8 8 8 8 9 9 9 8 8 8 8 8 8 8 8 8 8 8 8 8 8 8 8 8 8 8 8 8 8 8 8 8 8 8 8 8 8 8 8 8 8 8 8 8 8 8 8 8 8 8 8 7 7 8 8 7 7 7 7 7 7
10 9 9 9 9 9 9 9 9 9 9 9 9 9 8 8 8 8 8 8 8 8 8 8 8 8 8 9 9 9 9 8 8 8 8 8 8 8 8 8 8 8 8 8 8 8 8 8 8 8 8 8 8 8 8 8 8 8 8 8 8 8 8 8 8 8 8 8 8 8 8 8 7 8 8 8 8 8 8 8 8 8 7 7 7
10 9 9 9 9 9 9 9 9 9 9 9 9 9 9 8 8 8 8 8 8 8 8 8 8 8 8 8 8 9 8 8 8 8 8 8 8 8 8 8 8 8 8 8 8 8 8 8 8 8 8 8 8 8 8 8 8 8 8 8 8 8 8 8 8 8 8 8 8 8 8 8 8 8 8 8 8 8 8 8 8 8 7 7 7
10 10 9 9 9 9 9 9 9 9 9 9 9 9 9 9 8 8 8 8 8 8 8 8 8 8 8 8 8 8 8 8 8 8 8 8 8 8 8 8 8 8 8 8 8 8 8 8 8 8 8 8 8 8 8 8 8 8 8 8 8 8 8 8 8 8 8 8 8 8 8 8 8 8 8 8 8 8 8 8 8 8 7 7 7
10 10 9 9 9 9 9 9 9 9 9 9 9 9 9 9 9 8 8 8 8 8 8 8 8 8 8 8 9 9 9 9 8 8 8 8 8 8 8 8 8 8 8 8 8 8 8 8 8 8 8 8 8 8 8 8 8 8 8 8 8 8 8 8 8 8 8 8 8 8 8 8 8 8 8 8 8 8 8 8 8 7 7 7 7
10 10 9 9 9 9 9 10 10 9 9 9 9 9 9 9 9 9 9 9 8 8 8 8 8 8 8 9 9 9 9 9 8 8 8 8 8 8 8 8 9 9 9 8 8 8 8 8 8 8 8 8 8 8 8 8 8 8 9 8 8 8 8 8 8 8 8 8 8 8 8 8 8 8 8 8 8 8 8 8 7 7 7 7 7
10 10 10 10 10 9 10 10 10 10 9 9 9 9 9 9 9 9 9 9 9 8 8 8 8 8 9 9 9 9 9 9 9 9 9 9 9 8 8 9 9 9 9 9 8 8 8 8 8 8 8 8 8 8 9 8 8 8 8 8 8 8 8 8 8 8 8 8 8 8 8 8 8 8 8 8 7 7 8 7 7 7 7 7 7
11 11 10 10 10 10 10 10 10 10 9 9 9 9 9 9 9 9 9 9 9 9 9 9 9 9 9 9 9 9 9 9 9 9 9 9 9 9 9 9 9 9 9 9 8 8 8 8 8 8 8 8 8 8 8 8 8 8 8 8 8 8 8 8 8 8 8 8 8 8 8 8 8 8 8 8 7 7 7 7 7 7 7 7 7
11 11 10 10 10 10 10 10 10 10 10 9 9 9 9 9 9 9 9 9 9 9 9 9 9 9 9 9 9 9 9 9 9 9 9 9 9 9 9 9 9 9 9 9 9 8 8 8 8 8 8 8 8 8 8 8 8 8 8 8 8 8 8 8 8 8 8 8 8 8 8 8 8 8 8 8 8 7 7 7 7 7 7 7 7
11 11 11 11 11 11 10 10 10 10 10 9 9 9 9 9 9 9 9 9 9 9 9 9 9 9 9 9 9 9 9 9 9 9 9 9 9 9 9 9 9 9 9 9 9 9 9 9 8 8 8 8 8 9 9 9 8 8 8 8 8 8 8 8 8 8 8 8 7 8 8 8 8 8 8 8 8 8 7 7 7 7 7 7 7
11 11 11 10 10 10 10 10 10 10 10 10 9 9 9 9 9 9 9 9 9 9 9 9 9 9 9 9 9 9 9 9 9 9 9 9 9 9 9 9 9 9 9 9 9 9 9 9 9 9 8 8 8 8 9 9 9 9 8 8 8 8 8 8 8 8 8 8 8 7 7 8 8 8 8 8 8 8 8 7 7 7 7 7 7
11 11 11 11 10 10 10 10 10 10 10 10 9 9 9 9 9 9 9 9 9 9 9 9 9 9 9 9 9 9 9 9 9 9 9 9 9 9 9 9 9 9 9 9 9 9 9 9 9 8 8 8 8 8 9 9 9 9 9 8 8 8 8 8 8 8 8 8 8 8 8 7 7 8 8 8 8 8 8 7 7 7 7 7 7
11 11 11 11 10 10 10 10 10 10 10 10 9 9 9 9 9 9 9 9 9 9 9 9 9 9 9 9 9 9 9 9 9 9 9 9 9 9 9 9 9 9 9 9 9 9 9 9 8 8 8 8 8 9 9 9 9 9 9 8 8 8 8 8 8 8 8 8 8 8 8 7 7 8 8 8 7 7 7 7 7 7 7 7 7
12 11 11 11 11 10 10 10 10 10 10 10 10 9 9 9 9 9 9 9 9 9 9 9 9 9 9 9 9 9 9 9 9 9 9 9 9 9 9 9 9 9 9 9 9 9 9 9 9 8 9 8 8 9 8 9 9 9 9 8 8 8 8 8 8 8 8 8 8 7 8 8 7 7 7 7 7 7 7 7 7 8 8 8 8
12 11 11 11 11 11 10 10 10 10 10 10 10 10 10 9 9 9 9 9 9 9 9 9 9 9 9 9 9 9 9 9 9 9 9 9 9 9 9 9 9 9 9 9 9 9 9 9 9 9 9 8 9 8 8 9 9 9 9 9 9 8 8 8 7 8 8 8 8 7 8 8 8 7 7 7 7 8 8 8 8 8 8 7 7
12 12 11 11 11 11 11 10 10 10 10 10 10 10 10 10 10 10 10 10 10 10 10 9 9 9 9 9 9 9 9 9 9 9 9 9 9 9 9 9 9 9 9 9 9 9 9 9 9 9 9 8 9 8 8 8 9 9 9 9 9 8 8 8 6 7 8 8 8 8 8 8 8 8 7 7 7 7 7 8 8 8 7 7 7
12 12 11 11 11 11 11 11 10 10 10 10 10 10 10 10 10 10 10 10 10 10 10 10 10 9 9 9 9 9 9 9 9 9 9 9 9 9 9 9 9 9 9 9 9 9 9 9 9 9 9 9 9 9 9 9 9 9 9 9 9 8 8 8 7 6 7 8 8 8 8 8 8 8 8 8 7 7 7 8 8 7 7 7 7
12 12 12 12 12 11 11 11 11 11 11 10 10 10 10 10 10 10 10 10 10 10 10 10 10 10 9 9 9 9 9 9 9 9 9 9 9 9 10 10 9 9 9 9 9 9 9 9 9 9 9 9 9 9 9 9 9 9 9 9 9 8 8 8 7 7 7 8 8 8 8 8 8 8 8 8 8 7 7 8 7 7 7 7 7
12 12 12 12 12 12 11 11 11 11 11 10 10 10 10 10 10 10 10 10 10 10 10 10 10 10 9 9 9 9 9 9 9 9 9 9 9 9 10 10 9 9 9 9 9 9 9 9 10 9 9 9 9 9 9 9 9 9 9 9 8 8 8 8 8 7 7 8 7 8 8 8 8 8 8 8 8 8 8 7 7 7 7 8 8
12 12 12 12 12 12 12 12 11 11 11 11 11 11 11 10 10 10 10 10 10 10 10 10 10 9 9 9 9 9 9 9 10 10 10 9 9 9 10 10 10 9 9 9 9 9 9 9 9 9 9 9 9 9 9 9 9 9 9 9 9 8 8 8 8 7 7 7 8 8 8 8 8 7 8 8 8 8 8 8 7 7 7 7 8
12 12 12 12 12 12 12 12 11 11 11 11 11 11 11 11 11 10 10 10 10 10 10 10 10 10 9 9 9 9 9 10 10 10 10 10 9 9 9 10 10 10 9 9 9 9 9 9 9 9 9 9 9 9 8 9 9 9 9 9 9 8 8 8 7 7 7 7 8 8 8 8 7 7 7 7 8 8 8 8 8 8 8 7 8
12 12 12 12 12 12 12 12 12 11 11 11 11 11 11 11 11 11 10 10 10 10 10 10 10 10 10 9 9 9 9 10 10 10 10 10 9 9 9 10 10 9 9 9 9 9 9 9 9 9 9 9 9 8 8 9 9 9 9 9 9 8 8 8 8 7 7 7 8 7 7 7 7 7 7 7 7 8 8 8 8 8 8 8 8
12 12 12 12 12 12 12 12 12 11 11 11 11 11 11 11 11 11 11 10 10 10 10 10 10 10 10 10 10 10 10 10 10 10 10 10 9 9 10 10 10 9 9 9 9 9 9 9 9 9 9 9 8 8 8 8 8 9 9 8 8 8 8 8 8 7 7 8 8 7 7 7 7 7 7 7 7 7 8 8 8 8 8 8 8
12 12 12 12 12 12 12 12 12 12 11 11 11 11 11 11 11 11 11 11 10 10 10 10 10 10 10 10 10 10 10 10 10 10 10 9 9 10 10 10 10 10 10 9 9 9 9 9 9 9 9 9 9 9 8 9 9 9 9 8 8 9 9 9 8 7 7 8 8 7 7 7 7 7 7 7 7 7 7 7 7 7 7 8 8
12 12 12 12 12 12 12 12 12 12 12 12 12 12 12 11 11 11 11 11 10 10 10 10 10 10 10 10 10 10 10 10 10 10 9 9 9 10 10 10 10 10 10 9 9 9 9 9 9 9 9 9 9 9 9 9 10 10 9 9 9 9 9 9 8 8 7 7 8 7 7 8 8 7 7 7 7 7 7 7 7 7 7 8 7
12 12 12 12 12 12 12 12 12 12 12 12 12 12 12 12 11 11 11 11 10 10 10 10 10 10 10 10 10 10 10 10 10 10 9 9 9 9 10 10 10 10 10 10 10 10 10 9 9 9 9 9 9 9 10 10 10 10 10 10 10 10 9 9 8 8 7 7 7 8 7 7 7 7 7 7 7 7 7 7 7 7 7 7 7
12 12 12 12 12 12 12 12 12 12 12 12 12 12 12 12 11 11 11 11 10 10 10 10 10 10 10 10 10 10 10 10 10 10 9 9 9 9 10 10 10 10 10 10 10 10 10 10 9 10 9 9 10 10 10 10 10 10 10 10 10 10 9 9 9 8 7 7 7 7 7 7 7 7 7 6 7 7 7 7 7 7 7 7 7
12 13 12 12 13 13 13 13 12 12 12 12 12 12 12 12 11 11 11 11 11 10 10 10 10 10 10 10 10 10 10 10 10 10 9 9 10 10 10 10 10 10 10 10 10 10 10 10 10 10 10 9 10 10 10 10 10 10 10 10 10 10 9 9 9 8 7 7 7 7 7 7 7 7 7 6 7 7 7 7 7 7 7 7 7
13 13 13 13 13 13 13 13 13 12 12 12 12 12 12 12 12 11 11 11 11 11 11 11 10 10 10 10 10 10 10 10 10 10 10 10 10 10 10 10 10 10 10 10 10 10 10 10 10 10 10 10 10 10 10 10 10 10 10 10 10 10 9 8 9 8 8 7 7 7 7 7 7 7 7 6 7 7 7 7 6 6 7 7 7
13 13 13 13 13 13 13 13 13 13 13 13 12 12 12 12 12 12 11 11 11 11 11 11 11 11 10 10 10 10 10 10 10 10 10 10 10 10 10 10 10 10 10 10 10 10 10 10 10 10 10 10 10 10 10 10 10 10 10 10 10 10 9 9 9 8 8 7 7 8 7 7 7 7 7 7 7 7 7 7 7 7 7 7 7
13 13 13 13 13 13 13 13 13 13 13 13 12 12 12 12 12 12 12 12 12 12 12 11 11 11 10 10 10 10 10 10 10 10 10 10 10 10 10 10 10 10 10 10 10 10 10 10 10 10 10 10 10 10 10 10 10 10 10 10 10 10 10 10 9 8 8 8 8 8 8 8 8 7 7 7 7 7 7 7 7 7 7 7 7
14 13 13 13 13 13 13 13 13 13 13 13 13 13 12 12 12 12 12 12 12 12 11 11 11 10 10 10 10 10 10 10 10 10 10 10 10 10 10 10 10 10 10 10 10 10 10 10 10 10 10 10 10 10 10 10 10 10 10 10 10 10 10 10 9 9 8 8 8 8 8 8 8 7 7 7 7 6 7 7 7 7 7 7 7
14 14 13 13 13 13 13 13 13 13 13 13 13 13 13 12 12 12 12 12 12 12 11 11 11 10 10 10 10 10 10 10 10 10 10 10 10 10 10 10 10 10 10 10 10 10 10 10 10 10 10 10 10 10 10 10 10 10 10 10 10 10 10 10 10 9 8 8 8 8 8 8 8 7 7 7 7 7 7 7 7 8 7 7 7
14 14 13 13 13 13 13 13 13 13 13 13 13 13 13 13 13 12 12 12 12 12 11 11 11 11 11 11 10 10 10 10 10 10 10 10 10 10 10 10 10 10 10 11 11 11 11 10 10 10 10 10 10 10 10 10 10 10 10 10 10 10 10 9 9 9 9 8 8 8 8 8 8 7 7 7 7 7 7 7 7 8 8 7 7
14 14 13 13 13 13 13 13 13 13 13 13 13 13 13 13 13 13 12 12 12 12 12 11 11 11 11 11 11 10 10 10 10 10 10 10 10 10 10 10 10 10 11 11 11 11 11 10 10 10 10 10 10 10 10 10 10 10 10 10 10 10 10 9 9 9 9 9 9 9 8 8 8 8 8 7 7 7 7 7 7 8 7 7 7
Height
3185 3186 3188 3189 3190 3191 3193 3194 3196 3198 3199 3200 3201 3203 3204 3205 3206 3207 3208 3209 3209 3210 3210 3210 3211 3211 3211 3211 3211 3211 3211 3212 3212 3212 3212 3213 3213 3213 3213 3213 3214 3214 3214 3214 3214 3214 3214 3214 3215 3215 3215 3215 3215 3214 3213 3213 3212 3212 3211 3210 3209 3208 3208 3208 3209 3209 3210 3211 3212 3212 3213 3214 3214 3215 3215 3216 3216 3216 3217 3218 3218 3219 3220 3221 3221
3185 3187 3188 3190 3191 3192 3194 3196 3198 3199 3200 3201 3203 3204 3205 3206 3207 3209 3209 3210 3210 3210 3211 3211 3212 3212 3212 3212 3212 3212 3212 3213 3213 3213 3213 3214 3214 3214 3214 3215 3215 3214 3214 3215 3215 3215 3215 3215 3215 3215 3215 3215 3215 3215 3214 3213 3213 3213 3212 3210 3209 3209 3210 3210 3210 3210 3211 3211 3212 3213 3213 3214 3214 3215 3215 3216 3216 3216 3217 3217 3218 3219 3220 3220 3221
3187 3188 3190 3191 3193 3194 3196 3198 3200 3200 3201 3202 3204 3206 3207 3208 3209 3210 3210 3211 3211 3211 3212 3213 3213 3213 3213 3213 3213 3213 3213 3214 3214 3214 3214 3214 3215 3215 3215 3215 3215 3215 3215 3215 3216 3215 3215 3215 3216 3216 3216 3216 3215 3215 3214 3214 3214 3213 3213 3211 3210 3210 3211 3211 3212 3212 3212 3212 3213 3213 3214 3215 3215 3215 3216 3216 3216 3217 3217 3217 3218 3219 3220 3220 3220
3188 3189 3191 3192 3194 3196 3198 3199 3200 3201 3202 3204 3206 3207 3208 3209 3210 3211 3211 3211 3212 3212 3213 3214 3214 3214 3214 3214 3214 3214 3214 3215 3215 3215 3215 3215 3215 3215 3215 3216 3216 3216 3216 3217 3217 3216 3216 3216 3217 3216 3216 3216 3216 3216 3215 3215 3215 3214 3213 3212 3211 3211 3211 3212 3213 3213 3213 3213 3214 3214 3215 3215 3215 3216 3216 3216 3217 3217 3217 3217 3218 3219 3219 3220 3220
3189 3190 3191 3193 3194 3196 3198 3199 3200 3202 3204 3205 3207 3209 3210 3211 3212 3212 3212 3212 3213 3213 3214 3214 3215 3215 3215 3215 3215 3215 3215 3216 3216 3216 3216 3216 3216 3216 3216 3216 3216 3217 3217 3217 3217 3217 3217 3218 3218 3217 3217 3217 3217 3216 3216 3216 3216 3215 3214 3213 3212 3212 3212 3213 3214 3214 3214 3214 3215 3215 3215 3216 3216 3216 3217 3217 3217 3217 3217 3218 3218 3219 3219 3220 3220
3190 3191 3192 3194 3196 3198 3199 3200 3202 3203 3205 3207 3208 3210 3211 3212 3212 3212 3212 3213 3213 3214 3215 3215 3215 3215 3215 3215 3216 3216 3216 3216 3216 3217 3216 3216 3216 3216 3216 3217 3217 3217 3217 3217 3218 3218 3218 3218 3218 3218 3218 3218 3217 3217 3217 3216 3216 3216 3215 3214 3213 3213 3214 3214 3214 3215 3215 3215 3215 3215 3216 3216 3216 3217 3217 3217 3217 3217 3217 3218 3218 3219 3219 3220 3221
3192 3193 3194 3196 3197 3199 3200 3201 3203 3205 3206 3208 3209 3211 3212 3213 3213 3213 3213 3214 3215 3216 3216 3216 3216 3216 3216 3217 3217 3217 3217 3217 3217 3217 3217 3217 3217 3217 3218 3218 3218 3218 3218 3218 3218 3219 3219 3219 3219 3219 3218 3218 3218 3218 3217 3217 3217 3216 3216 3215 3214 3214 3215 3215 3215 3216 3216 3216 3215 3216 3216 3216 3217 3217 3217 3217 3217 3217 3218 3218 3219 3219 3220 3220 3221
3193 3195 3196 3197 3198 3199 3201 3202 3204 3206 3207 3209 3210 3212 3213 3213 3213 3213 3214 3215 3216 3216 3217 3217 3217 3217 3217 3218 3218 3218 3218 3218 3218 3218 3218 3219 3219 3219 3219 3219 3219 3219 3219 3219 3219 3219 3219 3219 3219 3219 3219 3219 3218 3218 3218 3218 3218 3217 3217 3217 3216 3216 3216 3216 3216 3217 3217 3217 3216 3216 3216 3217 3217 3218 3218 3217 3218 3218 3218 3219 3219 3220 3220 3221 3222
3194 3196 3197 3198 3200 3201 3202 3203 3205 3207 3208 3210 3211 3213 3214 3214 3214 3214 3215 3216 3217 3217 3217 3218 3218 3218 3218 3218 3219 3219 3219 3219 3219 3219 3220 3220 3220 3220 3220 3220 3220 3220 3220 3220 3220 3220 3220 3220 3220 3220 3219 3219 3219 3219 3219 3219 3218 3218 3218 3217 3217 3217 3217 3217 3217 3217 3218 3218 3217 3217 3217 3217 3217 3218 3219 3218 3218 3219 3219 3220 3220 3221 3221 3221 3222
3194 3196 3198 3199 3200 3202 3203 3204 3206 3207 3209 3210 3212 3214 3214 3214 3214 3215 3216 3217 3218 3218 3218 3219 3219 3219 3219 3219 3220 3220 3220 3220 3220 3221 3221 3221 3221 3222 3222 3222 3221 3221 3221 3221 3221 3221 3221 3221 3221 3221 3220 3220 3220 3220 3220 3219 3219 3219 3218 3218 3218 3218 3218 3218 3218 3218 3218 3218 3218 3218 3219 3219 3218 3219 3220 3219 3219 3219 3220 3220 3221 3222 3222 3222 3222
3195 3197 3198 3200 3201 3202 3204 3205 3207 3208 3210 3211 3213 3214 3214 3215 3215 3216 3218 3218 3219 3219 3219 3219 3220 3220 3220 3220 3220 3221 3221 3221 3222 3222 3222 3223 3223 3223 3223 3223 3223 3223 3223 3223 3223 3222 3222 3222 3222 3222 3221 3221 3221 3221 3221 3220 3220 3219 3219 3219 3219 3219 3219 3219 3220 3220 3219 3219 3219 3219 3219 3220 3220 3220 3221 3221 3220 3220 3221 3221 3221 3222 3223 3223 3223
3196 3198 3199 3200 3202 3203 3204 3206 3207 3209 3211 3212 3214 3215 3215 3215 3216 3218 3218 3219 3219 3220 3220 3220 3220 3221 3221 3221 3221 3222 3222 3223 3223 3223 3224 3224 3224 3224 3224 3224 3224 3224 3224 3224 3224 3224 3223 3223 3223 3222 3222 3222 3222 3222 3221 3221 3221 3220 3220 3220 3220 3220 3220 3220 3220 3220 3220 3220 3219 3219 3219 3221 3222 3221 3222 3222 3222 3222 3222 3222 3222 3223 3223 3223 3224
3197 3198 3200 3201 3202 3204 3205 3207 3208 3210 3212 3213 3214 3215 3215 3216 3218 3219 3219 3220 3220 3220 3221 3221 3221 3221 3222 3222 3223 3223 3224 3224 3225 3225 3225 3225 3226 3226 3226 3226 3225 3225 3225 3225 3225 3225 3225 3224 3224 3223 3223 3222 3222 3222 3222 3222 3222 3222 3221 3221 3221 3221 3221 3221 3221 3221 3221 3221 3221 3220 3220 3222 3222 3222 3222 3222 3223 3223 3223 3223 3224 3224 3224 3224 3225
3198 3199 3200 3202 3203 3205 3206 3208 3209 3211 3212 3214 3215 3215 3216 3217 3219 3219 3220 3220 3221 3221 3221 3222 3222 3223 3223 3223 3224 3224 3225 3225 3226 3226 3226 3227 3227 3227 3227 3227 3226 3226 3226 3226 3226 3225 3225 3225 3224 3224 3224 3223 3223 3223 3222 3222 3222 3222 3222 3222 3222 3222 3222 3222 3222 3222 3222 3222 3222 3222 3222 3223 3223 3223 3223 3223 3223 3223 3224 3224 3224 3225 3225 3225 3225
3198 3200 3201 3202 3204 3206 3207 3209 3210 3211 3212 3214 3215 3216 3217 3218 3219 3220 3221 3221 3222 3222 3222 3223 3223 3224 3224 3224 3225 3226 3226 3227 3227 3227 3227 3228 3228 3228 3228 3227 3227 3227 3227 3226 3226 3226 3226 3225 3225 3224 3224 3224 3223 3223 3223 3223 3223 3223 3223 3223 3223 3223 3223 3223 3222 3223 3223 3223 3223 3223 3223 3223 3223 3223 3223 3223 3224 3224 3224 3224 3225 3225 3225 3226 3226
3199 3200 3202 3203 3204 3206 3208 3209 3210 3211 3213 3214 3215 3216 3218 3219 3220 3221 3222 3222 3222 3223 3223 3224 3224 3225 3225 3226 3226 3227 3227 3228 3228 3228 3228 3229 3229 3228 3228 3228 3228 3228 3227 3227 3227 3227 3226 3226 3225 3225 3225 3224 3224 3224 3224 3224 3224 3223 3223 3223 3223 3223 3223 3223 3223 3223 3224 3224 3224 3224 3224 3224 3224 3224 3224 3224 3224 3224 3224 3225 3225 3226 3226 3226 3226
3200 3201 3202 3203 3205 3206 3208 3209 3210 3212 3213 3215 3216 3217 3218 3220 3221 3222 3222 3223 3223 3224 3224 3224 3225 3226 3226 3227 3227 3228 3228 3229 3229 3229 3229 3230 3229 3229 3229 3229 3229 3229 3228 3228 3228 3227 3227 3227 3226 3226 3225 3225 3225 3225 3225 3224 3224 3224 3224 3224 3224 3223 3224 3224 3224 3224 3224 3224 3224 3224 3225 3225 3224 3224 3224 3224 3225 3225 3225 3225 3225 3226 3226 3227 3227
3200 3202 3203 3204 3205 3207 3208 3209 3210 3212 3213 3215 3216 3218 3219 3220 3221 3222 3223 3223 3224 3224 3225 3225 3226 3227 3227 3228 3228 3229 3229 3230 3230 3230 3230 3230 3230 3230 3230 3230 3230 3230 3229 3229 3229 3228 3228 3227 3227 3227 3226 3226 3226 3225 3225 3225 3224 3224 3224 3224 3224 3224 3224 3224 3224 3224 3224 3224 3224 3225 3225 3225 3224 3224 3224 3225 3225 3225 3225 3226 3226 3226 3227 3227 3227
3201 3202 3204 3205 3206 3207 3208 3209 3211 3212 3214 3215 3217 3218 3219 3221 3222 3223 3223 3224 3224 3225 3226 3226 3227 3228 3228 3228 3229 3229 3230 3230 3231 3231 3231 3231 3231 3231 3231 3231 3230 3230 3230 3230 3230 3229 3229 3228 3228 3227 3227 3227 3226 3226 3226 3225 3225 3225 3225 3225 3224 3224 3224 3224 3224 3225 3225 3225 3225 3225 3225 3225 3224 3225 3225 3225 3225 3226 3226 3227 3227 3227 3227 3228 3228
3201 3202 3204 3205 3206 3208 3208 3210 3211 3213 3214 3216 3217 3218 3220 3221 3222 3223 3224 3224 3225 3226 3227 3227 3228 3228 3229 3229 3230 3230 3230 3231 3231 3231 3232 3232 3232 3232 3232 3232 3231 3231 3231 3231 3230 3230 3230 3229 3229 3228 3228 3227 3227 3227 3226 3226 3226 3225 3225 3225 3225 3225 3224 3224 3225 3225 3225 3225 3225 3225 3225 3225 3225 3225 3226 3226 3226 3227 3227 3227 3227 3228 3228 3228 3228
3200 3202 3204 3205 3207 3208 3209 3210 3212 3213 3214 3216 3217 3219 3220 3221 3223 3224 3224 3225 3226 3227 3227 3228 3228 3229 3229 3230 3230 3231 3231 3231 3232 3232 3232 3232 3232 3232 3232 3232 3232 3232 3232 3231 3231 3231 3230 3230 3230 3229 3229 3228 3227 3227 3227 3227 3226 3226 3225 3225 3225 3225 3225 3225 3225 3225 3225 3225 3225 3225 3226 3226 3226 3226 3226 3227 3227 3227 3227 3227 3227 3227 3228 3229 3229
3200 3202 3203 3205 3206 3208 3209 3210 3212 3213 3215 3216 3217 3219 3221 3222 3223 3224 3225 3226 3226 3227 3228 3228 3229 3229 3230 3231 3231 3231 3232 3232 3232 3232 3233 3233 3233 3233 3233 3233 3233 3233 3232 3232 3232 3231 3231 3230 3230 3229 3229 3228 3228 3227 3227 3227 3227 3226 3225 3225 3225 3225 3225 3225 3225 3226 3225 3225 3226 3226 3226 3227 3226 3226 3227 3227 3227 3227 3227 3227 3227 3227 3228 3229 3229
3200 3201 3203 3205 3206 3208 3209 3210 3212 3213 3215 3216 3218 3219 3221 3222 3223 3224 3225 3226 3227 3228 3228 3229 3229 3230 3231 3231 3232 3232 3232 3233 3233 3233 3233 3233 3233 3233 3233 3233 3233 3233 3233 3233 3232 3232 3231 3231 3230 3230 3229 3229 3228 3228 3228 3228 3227 3226 3226 3225 3225 3225 3226 3226 3226 3226 3226 3226 3227 3227 3227 3227 3227 3227 3227 3227 3227 3228 3227 3227 3227 3228 3229 3229 3229
3200 3202 3203 3204 3206 3207 3209 3210 3212 3213 3215 3216 3218 3219 3221 3222 3224 3225 3226 3226 3227 3228 3229 3229 3230 3230 3231 3232 3232 3232 3233 3233 3233 3234 3234 3234 3234 3234 3234 3234 3233 3233 3233 3233 3233 3232 3232 3231 3231 3231 3230 3229 3229 3229 3229 3229 3228 3227 3226 3226 3226 3225 3226 3226 3226 3226 3226 3227 3227 3227 3227 3228 3228 3228 3228 3228 3228 3228 3228 3228 3228 3228 3229 3229 3229
3200 3202 3203 3204 3206 3207 3209 3210 3212 3213 3215 3217 3218 3220 3221 3222 3224 3225 3226 3227 3227 3228 3229 3230 3230 3231 3231 3232 3232 3233 3233 3234 3234 3234 3234 3234 3234 3234 3234 3234 3234 3234 3233 3233 3233 3232 3232 3232 3231 3231 3230 3230 3229 3230 3230 3229 3229 3228 3227 3227 3226 3226 3226 3227 3227 3227 3226 3226 3227 3227 3227 3228 3228 3228 3228 3228 3228 3228 3228 3228 3229 3229 3229 3229 3230
3200 3201 3203 3205 3206 3207 3208 3210 3212 3213 3215 3217 3218 3220 3221 3222 3224 3225 3226 3227 3228 3228 3229 3230 3230 3231 3232 3232 3233 3233 3233 3234 3234 3234 3235 3235 3235 3235 3235 3235 3234 3234 3234 3233 3233 3233 3232 3232 3232 3231 3230 3230 3230 3230 3230 3230 3230 3230 3229 3228 3227 3227 3227 3227 3227 3227 3227 3226 3227 3227 3227 3228 3228 3228 3228 3228 3228 3228 3228 3229 3229 3229 3230 3230 3230
3199 3201 3203 3205 3206 3207 3208 3210 3212 3213 3215 3216 3218 3220 3221 3222 3224 3225 3226 3227 3228 3228 3229 3230 3230 3231 3232 3232 3233 3233 3233 3234 3234 3234 3235 3235 3235 3235 3235 3235 3235 3235 3234 3234 3233 3233 3232 3232 3232 3232 3231 3231 3230 3229 3230 3230 3230 3230 3230 3229 3228 3227 3227 3227 3227 3227 3228 3227 3227 3227 3227 3228 3228 3228 3228 3228 3229 3229 3229 3229 3229 3230 3230 3230 3230
3199 3201 3203 3204 3206 3207 3208 3210 3211 3213 3215 3216 3218 3219 3221 3222 3223 3225 3226 3226 3227 3228 3229 3230 3230 3231 3232 3232 3233 3233 3234 3234 3234 3234 3235 3235 3235 3235 3235 3235 3235 3235 3235 3234 3233 3233 3233 3233 3233 3232 3232 3231 3230 3230 3230 3230 3230 3230 3230 3230 3229 3228 3228 3228 3228 3228 3228 3228 3227 3226 3227 3227 3228 3228 3228 3228 3229 3229 3229 3229 3229 3229 3230 3230 3230
3199 3201 3202 3204 3205 3207 3208 3210 3211 3213 3214 3216 3218 3219 3220 3222 3223 3224 3225 3226 3227 3228 3229 3229 3230 3231 3232 3232 3233 3233 3234 3234 3234 3234 3235 3235 3235 3235 3235 3235 3235 3235 3235 3234 3234 3233 3233 3233 3233 3233 3232 3231 3231 3231 3231 3230 3230 3230 3230 3230 3229 3228 3228 3228 3228 3228 3228 3228 3228 3226 3226 3227 3228 3228 3228 3228 3228 3229 3229 3229 3230 3229 3230 3230 3230
3198 3200 3202 3204 3205 3206 3208 3210 3211 3212 3214 3216 3217 3219 3220 3221 3222 3224 3225 3226 3227 3228 3228 3229 3230 3231 3231 3232 3232 3233 3233 3234 3234 3235 3235 3235 3235 3235 3235 3235 3235 3235 3235 3235 3234 3234 3233 3233 3233 3232 3231 3231 3231 3231 3230 3231 3230 3230 3230 3230 3229 3228 3228 3227 3228 3228 3228 3228 3228 3227 3227 3227 3228 3228 3228 3228 3228 3228 3229 3230 3230 3230 3230 3230 3230
3198 3199 3201 3203 3205 3206 3207 3209 3211 3212 3214 3215 3217 3218 3220 3221 3222 3223 3224 3225 3226 3227 3228 3229 3230 3230 3231 3231 3232 3233 3233 3234 3234 3235 3235 3235 3235 3235 3235 3235 3235 3235 3235 3234 3234 3234 3233 3234 3233 3232 3232 3231 3231 3231 3230 3231 3231 3230 3230 3229 3229 3227 3227 3227 3227 3228 3228 3228 3227 3227 3227 3227 3227 3228 3228 3228 3228 3229 3229 3230 3230 3230 3230 3230 3230
3197 3199 3201 3203 3204 3206 3207 3209 3210 3211 3213 3215 3216 3218 3219 3220 3222 3223 3224 3225 3226 3226 3227 3228 3229 3230 3230 3231 3232 3232 3233 3233 3234 3235 3235 3235 3235 3235 3235 3235 3235 3235 3235 3235 3234 3234 3233 3233 3233 3233 3232 3231 3231 3231 3231 3231 3231 3231 3230 3230 3229 3227 3227 3226 3227 3228 3228 3228 3228 3228 3228 3228 3228 3228 3228 3228 3229 3229 3229 3230 3230 3230 3230 3231 3230
3197 3199 3201 3202 3204 3205 3207 3208 3209 3211 3212 3214 3216 3217 3218 3220 3221 3222 3223 3224 3225 3226 3227 3228 3229 3229 3230 3231 3232 3232 3233 3233 3234 3234 3235 3235 3235 3235 3235 3235 3235 3235 3235 3235 3235 3234 3234 3233 3233 3232 3232 3231 3231 3231 3231 3231 3231 3231 3230 3230 3229 3227 3226 3226 3227 3227 3228 3227 3228 3228 3229 3229 3228 3228 3228 3228 3228 3229 3229 3230 3230 3230 3230 3230 3230
3196 3198 3200 3202 3203 3205 3206 3208 3209 3210 3212 3213 3215 3216 3218 3219 3220 3221 3222 3223 3224 3226 3227 3227 3228 3229 3230 3231 3231 3232 3232 3233 3233 3234 3234 3235 3235 3235 3235 3235 3235 3235 3235 3235 3235 3235 3234 3234 3233 3232 3232 3232 3231 3231 3231 3232 3231 3231 3230 3230 3229 3227 3226 3226 3226 3227 3227 3227 3228 3228 3229 3229 3228 3227 3228 3228 3228 3229 3229 3229 3229 3229 3229 3230 3230
3195 3197 3199 3201 3202 3204 3205 3207 3208 3210 3211 3212 3214 3215 3217 3218 3219 3221 3222 3223 3224 3225 3226 3227 3228 3229 3230 3230 3231 3231 3232 3232 3233 3233 3234 3234 3234 3234 3234 3235 3235 3235 3235 3235 3234 3234 3234 3233 3233 3232 3232 3231 3231 3231 3231 3231 3231 3231 3231 3230 3229 3228 3226 3226 3226 3226 3227 3227 3228 3228 3228 3229 3228 3227 3228 3229 3229 3229 3229 3229 3229 3229 3229 3229 3230
3194 3196 3198 3200 3201 3203 3205 3206 3208 3209 3211 3212 3213 3215 3216 3217 3219 3220 3221 3222 3223 3225 3225 3226 3227 3228 3229 3230 3230 3231 3231 3232 3233 3233 3234 3234 3234 3234 3234 3234 3234 3234 3234 3234 3234 3234 3233 3233 3232 3232 3232 3232 3231 3231 3230 3231 3231 3231 3231 3229 3228 3227 3226 3225 3225 3226 3227 3227 3227 3228 3228 3228 3227 3227 3228 3228 3229 3229 3228 3229 3228 3228 3229 3229 3230
3193 3195 3197 3199 3201 3202 3204 3206 3207 3209 3210 3211 3213 3214 3215 3217 3218 3219 3220 3221 3223 3224 3225 3225 3227 3227 3228 3229 3230 3230 3231 3232 3232 3233 3233 3234 3234 3234 3234 3234 3234 3234 3234 3234 3234 3233 3233 3233 3232 3232 3232 3231 3231 3230 3230 3230 3230 3230 3230 3229 3228 3226 3225 3225 3225 3226 3226 3227 3227 3228 3228 3228 3227 3227 3227 3228 3228 3228 3227 3228 3228 3228 3229 3229 3229
3192 3194 3196 3198 3199 3201 3203 3205 3206 3208 3209 3210 3212 3213 3214 3216 3217 3218 3219 3220 3222 3223 3224 3225 3226 3226 3227 3228 3229 3229 3230 3231 3232 3232 3233 3233 3233 3234 3234 3234 3234 3234 3234 3234 3234 3234 3233 3233 3232 3232 3232 3231 3231 3230 3230 3230 3230 3230 3229 3228 3227 3226 3224 3224 3225 3226 3226 3227 3227 3228 3228 3228 3227 3227 3227 3227 3228 3228 3227 3227 3228 3228 3228 3228 3228
3191 3192 3194 3196 3198 3200 3202 3203 3205 3206 3208 3209 3210 3212 3213 3214 3216 3217 3218 3220 3221 3222 3223 3224 3225 3226 3227 3227 3228 3229 3230 3230 3231 3232 3232 3232 3233 3233 3233 3234 3234 3234 3233 3234 3234 3233 3233 3232 3232 3232 3232 3231 3230 3230 3230 3229 3229 3229 3228 3227 3226 3225 3224 3224 3225 3225 3226 3227 3227 3228 3228 3227 3227 3227 3227 3227 3227 3227 3227 3227 3228 3228 3227 3227 3227
3189 3190 3192 3194 3196 3198 3200 3202 3203 3205 3206 3207 3209 3210 3212 3213 3215 3216 3217 3219 3220 3221 3222 3223 3224 3225 3226 3227 3227 3228 3229 3230 3230 3231 3231 3232 3232 3233 3233 3233 3233 3233 3233 3233 3233 3233 3233 3232 3232 3231 3231 3231 3230 3229 3229 3229 3228 3228 3227 3226 3225 3225 3224 3224 3225 3225 3226 3227 3227 3228 3227 3227 3227 3227 3226 3226 3226 3226 3226 3226 3227 3227 3228 3227 3226
3187 3189 3190 3192 3194 3196 3198 3200 3202 3203 3204 3206 3208 3209 3211 3213 3214 3215 3217 3218 3219 3221 3221 3222 3223 3224 3225 3226 3227 3227 3228 3229 3230 3230 3231 3231 3231 3232 3232 3232 3232 3233 3233 3233 3233 3232 3232 3232 3232 3231 3231 3231 3230 3230 3229 3229 3228 3227 3226 3225 3225 3224 3224 3224 3225 3225 3225 3226 3227 3228 3228 3227 3227 3226 3225 3225 3225 3225 3225 3226 3226 3226 3227 3227 3226
3185 3187 3189 3191 3193 3195 3197 3199 3200 3202 3203 3205 3207 3209 3211 3212 3214 3215 3216 3217 3218 3220 3221 3221 3222 3223 3224 3225 3226 3226 3227 3228 3229 3229 3230 3230 3231 3231 3231 3231 3232 3232 3232 3232 3232 3232 3232 3232 3232 3231 3231 3231 3230 3230 3229 3229 3228 3227 3226 3225 3225 3224 3224 3225 3225 3225 3225 3226 3226 3227 3228 3227 3226 3226 3225 3224 3224 3224 3224 3225 3225 3225 3225 3226 3226
3184 3186 3187 3189 3191 3193 3195 3197 3199 3201 3202 3204 3206 3208 3210 3211 3213 3214 3215 3216 3217 3218 3219 3220 3221 3222 3223 3224 3224 3225 3226 3227 3228 3228 3229 3229 3230 3230 3230 3231 3231 3231 3231 3232 3232 3232 3231 3231 3231 3231 3231 3231 3230 3229 3229 3229 3228 3228 3227 3226 3225 3225 3225 3225 3225 3225 3225 3226 3226 3227 3227 3227 3227 3226 3225 3224 3223 3223 3223 3224 3224 3224 3224 3225 3225
3182 3184 3185 3187 3189 3191 3193 3195 3197 3199 3201 3203 3205 3207 3209 3210 3211 3212 3213 3214 3215 3216 3217 3218 3219 3220 3221 3222 3223 3224 3225 3226 3227 3227 3228 3228 3229 3229 3230 3230 3230 3230 3231 3231 3231 3231 3231 3231 3231 3231 3231 3230 3230 3229 3229 3228 3228 3228 3227 3226 3226 3225 3225 3226 3225 3225 3225 3226 3226 3227 3227 3227 3227 3226 3226 3225 3224 3223 3223 3223 3223 3224 3224 3224 3224
3180 3182 3184 3185 3187 3189 3192 3194 3196 3198 3200 3202 3204 3205 3206 3208 3209 3210 3211 3212 3213 3215 3216 3217 3218 3219 3220 3221 3222 3223 3224 3225 3226 3226 3227 3227 3228 3228 3229 3229 3230 3230 3230 3230 3231 3231 3230 3231 3231 3231 3231 3230 3230 3229 3228 3228 3228 3227 3227 3226 3226 3226 3226 3225 3225 3225 3225 3226 3226 3226 3227 3227 3227 3227 3226 3225 3224 3223 3223 3223 3223 3223 3223 3223 3223
3178 3180 3182 3184 3186 3188 3190 3192 3194 3196 3198 3200 3202 3203 3204 3206 3207 3208 3210 3211 3213 3214 3215 3216 3217 3219 3219 3220 3221 3222 3223 3224 3225 3225 3226 3227 3227 3228 3228 3229 3229 3230 3230 3230 3230 3230 3230 3230 3231 3231 3230 3230 3230 3229 3229 3228 3228 3227 3227 3226 3226 3225 3225 3225 3225 3226 3225 3226 3226 3226 3227 3227 3227 3227 3226 3225 3224 3224 3223 3223 3223 3223 3223 3223 3223
3177 3179 3181 3183 3185 3187 3189 3190 3192 3194 3196 3198 3200 3201 3203 3204 3206 3208 3209 3211 3212 3213 3215 3216 3217 3217 3218 3219 3220 3221 3221 3222 3223 3224 3225 3225 3226 3226 3227 3228 3228 3229 3229 3229 3230 3230 3230 3230 3230 3230 3230 3230 3230 3229 3229 3228 3228 3227 3227 3226 3226 3226 3226 3225 3226 3226 3226 3226 3226 3226 3226 3226 3226 3226 3225 3225 3224 3223 3223 3223 3223 3223 3223 3223 3222
3175 3177 3179 3181 3183 3185 3187 3189 3191 3192 3194 3196 3198 3200 3201 3203 3205 3206 3208 3209 3211 3212 3213 3214 3215 3216 3217 3217 3218 3219 3220 3221 3222 3223 3223 3224 3225 3225 3226 3227 3227 3228 3228 3229 3229 3229 3230 3230 3230 3230 3230 3230 3230 3229 3229 3229 3228 3228 3227 3227 3226 3226 3226 3226 3226 3226 3226 3226 3226 3226 3226 3226 3226 3226 3225 3225 3224 3223 3223 3223 3223 3222 3222 3222 3222
3173 3175 3177 3179 3181 3183 3185 3187 3189 3191 3193 3194 3196 3198 3200 3202 3203 3205 3206 3208 3209 3210 3211 3212 3213 3214 3215 3216 3217 3217 3218 3219 3220 3221 3222 3223 3223 3224 3225 3226 3226 3227 3228 3228 3228 3229 3229 3230 3230 3230 3230 3230 3230 3230 3229 3229 3228 3228 3228 3227 3227 3227 3226 3226 3226 3226 3225 3226 3226 3226 3226 3226 3226 3226 3225 3225 3224 3223 3223 3222 3222 3222 3222 3222 3221
3171 3173 3175 3177 3178 3180 3183 3185 3187 3189 3191 3193 3194 3196 3198 3200 3201 3203 3205 3207 3208 3209 3210 3211 3212 3213 3213 3214 3215 3216 3217 3218 3219 3219 3220 3221 3222 3223 3223 3224 3225 3226 3226 3227 3228 3228 3229 3229 3230 3230 3230 3230 3230 3230 3230 3229 3229 3228 3228 3228 3228 3227 3227 3226 3226 3226 3225 3225 3226 3226 3226 3226 3226 3225 3225 3224 3224 3223 3222 3222 3221 3221 3221 3221 3221
3168 3170 3172 3174 3176 3178 3180 3182 3185 3186 3188 3190 3192 3194 3196 3197 3199 3201 3203 3205 3206 3207 3208 3209 3210 3211 3212 3213 3214 3215 3215 3216 3217 3218 3219 3219 3220 3221 3222 3223 3224 3224 3225 3226 3227 3228 3228 3229 3229 3229 3230 3230 3230 3230 3230 3229 3229 3229 3228 3228 3228 3228 3227 3227 3226 3226 3225 3225 3225 3225 3225 3225 3225 3225 3224 3224 3223 3223 3222 3221 3220 3220 3220 3220 3220
Wind_Speed
23 25 25 26 27 27 27 27 26 25 25 26 26 25 24 23 23 21 19 18 17 17 17 18 19 18 17 16 15 14 14 14 15 14 14 14 14 14 13 12 12 11 11 10 10 9 8 6 5 4 4 4 4 5 6 7 7 7 7 8 7 8 10 11 11 12 12 11 10 9 7 6 5 4 4 5 6 6 7 6 6 5 5 5 5
21 24 25 26 28 28 27 27 26 25 26 26 25 24 24 23 22 20 18 18 17 17 18 19 19 18 17 15 15 14 14 14 14 13 13 13 13 13 13 12 12 12 11 11 10 9 9 7 6 5 5 5 6 6 7 8 8 8 8 9 7 9 10 11 12 12 12 11 10 9 7 6 5 4 4 5 6 6 6 6 6 5 5 5 5
21 23 24 26 28 29 28 27 26 26 26 26 25 24 24 23 21 19 18 18 17 18 19 19 18 16 15 14 14 13 13 13 13 12 12 12 12 12 12 12 12 12 11 11 10 10 9 8 7 7 7 7 7 7 8 9 9 9 9 10 9 9 10 11 12 11 11 11 10 9 8 7 6 5 5 5 5 6 6 6 6 6 6 5 5
21 23 23 25 27 28 28 27 25 25 26 26 25 24 24 23 20 19 18 18 18 19 19 18 17 16 14 14 13 12 12 12 12 12 11 11 11 12 12 12 12 12 11 10 10 9 9 8 8 8 8 8 8 8 9 10 10 11 10 11 10 10 10 11 11 11 11 11 10 10 9 8 7 6 5 5 5 5 5 6 6 7 7 6 5
20 22 24 25 24 26 27 26 25 25 26 25 25 24 23 21 19 19 18 18 19 19 19 17 16 15 14 13 12 11 11 11 12 12 12 12 12 12 12 12 12 11 11 11 10 9 9 8 8 8 8 8 8 9 9 10 11 12 12 11 11 11 11 11 11 11 11 11 10 9 9 8 7 5 4 4 4 5 5 5 6 6 7 7 6
20 22 24 25 24 25 27 27 25 24 26 26 25 23 21 20 19 18 19 19 20 19 18 16 15 14 13 12 12 11 11 11 12 12 12 13 12 12 12 12 11 11 11 11 11 10 9 9 9 9 9 9 9 9 9 10 12 12 12 12 11 11 12 12 11 11 11 11 10 9 9 8 7 6 4 4 5 5 5 5 5 6 6 7 7
21 24 25 25 24 27 29 29 26 26 27 27 25 23 20 19 19 18 20 20 20 19 17 16 14 13 13 12 11 11 11 12 12 12 13 13 13 13 12 12 11 11 12 12 12 12 11 10 11 11 10 10 11 10 10 10 11 11 12 13 12 11 12 12 12 12 11 11 10 10 9 10 10 8 6 7 8 7 6 6 5 6 6 7 7
23 26 26 26 26 28 30 28 28 28 28 27 24 22 20 19 19 20 20 20 20 18 17 15 14 13 12 12 11 11 12 12 12 13 13 13 13 13 12 12 12 12 12 13 12 12 12 12 12 12 11 11 11 10 10 10 10 10 11 12 12 11 11 11 12 11 11 10 9 10 10 11 13 10 9 10 11 10 9 8 8 7 7 7 7
24 26 27 26 26 28 29 28 29 29 28 26 23 21 19 19 19 21 21 20 19 18 16 14 13 13 12 12 11 12 12 12 12 12 12 13 12 12 12 12 12 12 12 13 13 12 12 12 12 12 12 11 11 11 10 10 10 9 10 11 12 12 11 10 11 10 9 9 9 10 11 11 13 12 10 12 13 13 12 11 10 9 8 8 8
25 26 26 26 26 27 28 28 29 28 27 24 22 20 19 19 20 21 20 20 19 17 15 14 13 13 12 11 11 12 12 12 12 12 12 12 12 12 12 12 12 12 12 12 12 12 12 11 11 12 11 11 11 10 10 9 9 9 9 10 12 12 11 10 10 10 9 9 9 9 10 10 13 12 11 13 14 14 13 12 11 10 9 8 8
26 27 26 26 27 27 28 29 28 27 25 23 21 19 19 19 20 21 20 19 18 16 14 13 13 12 11 11 12 13 12 12 12 12 12 12 12 12 12 12 12 12 12 12 12 12 12 11 11 11 11 11 10 10 10 9 9 8 9 9 10 11 11 11 10 10 9 9 9 8 9 10 11 11 12 13 14 13 12 12 11 10 9 9 9
25 26 26 26 26 27 28 29 28 27 25 23 20 19 19 20 20 20 20 18 17 15 14 12 12 11 11 11 12 13 12 12 12 12 12 12 12 12 12 12 13 12 12 12 12 12 12 11 11 10 10 10 10 9 9 9 9 8 9 9 9 9 10 10 10 9 8 9 8 7 7 11 10 9 10 11 13 12 11 11 10 9 8 8 9
24 25 25 25 26 26 28 29 28 26 24 22 20 19 19 20 20 20 19 17 16 14 13 12 11 11 10 11 12 13 12 12 12 13 13 13 12 12 12 12 12 12 11 11 11 11 11 11 10 9 9 9 9 9 9 8 8 8 8 8 8 8 9 9 9 9 8 8 8 6 6 10 9 8 9 9 10 10 10 10 9 8 7 7 8
24 23 24 24 25 26 27 28 27 25 23 21 20 19 19 19 20 19 18 16 15 13 12 11 10 10 10 10 12 12 12 12 13 13 12 12 12 11 11 11 11 10 10 10 11 11 11 10 10 9 9 9 9 9 9 8 8 7 7 8 8 8 8 8 9 9 8 7 7 6 7 8 7 7 8 7 8 7 8 8 7 6 6 6 6
23 22 23 23 24 26 26 27 26 24 22 21 20 19 19 19 19 18 16 15 14 12 11 10 9 9 9 10 11 12 12 12 12 12 11 11 11 10 10 10 10 11 11 11 11 11 11 11 11 11 10 9 9 9 9 9 8 7 7 7 7 7 7 8 8 8 8 7 6 6 7 6 6 7 7 7 6 5 6 7 6 5 5 6 5
23 22 22 22 23 25 26 26 25 23 22 21 19 19 19 18 18 17 16 14 13 12 11 9 9 9 9 9 9 11 11 11 11 11 10 10 10 10 10 10 11 11 12 12 12 12 12 12 11 11 10 10 9 9 8 7 7 7 7 7 7 7 7 7 7 7 7 7 7 7 7 5 5 6 6 6 5 3 4 4 4 4 3 4 5
22 22 22 22 23 24 25 25 24 23 21 20 19 19 18 18 17 16 15 13 12 11 10 9 8 9 9 9 9 9 9 10 10 10 9 9 9 9 10 11 11 12 13 13 13 13 12 12 11 10 10 9 10 9 8 7 6 7 7 6 6 6 6 6 6 7 7 7 8 8 7 5 4 5 6 5 3 3 3 2 2 2 2 3 4
21 21 22 22 23 24 25 25 25 23 22 21 19 18 18 18 17 16 14 13 12 11 10 9 8 9 9 9 8 8 8 9 9 9 9 8 8 9 10 11 11 12 12 12 12 12 12 12 11 10 9 9 9 9 9 8 7 7 6 6 5 5 6 6 6 6 6 7 8 8 7 6 5 5 5 4 2 2 3 1 0 1 1 3 4
22 21 21 21 22 24 24 25 25 23 22 21 19 18 18 18 17 15 14 12 11 10 9 8 8 8 9 9 8 7 7 8 8 8 8 8 9 9 10 10 11 12 11 11 12 12 13 14 13 11 10 10 9 9 9 8 7 6 5 5 4 4 5 5 5 5 5 5 7 7 7 7 6 6 5 3 1 1 1 1 1 2 2 3 4
23 22 21 21 22 23 24 25 24 24 22 21 19 18 18 18 17 15 13 12 11 10 9 8 8 8 8 8 7 7 7 7 7 7 8 8 9 10 10 10 11 11 11 11 11 12 13 14 14 13 12 11 10 9 9 8 6 5 3 4 4 3 4 5 5 4 4 4 5 6 7 7 7 7 6 5 2 1 2 2 2 3 3 4 4
23 23 22 22 22 23 24 24 24 24 23 21 20 19 18 17 16 15 13 12 11 10 9 9 8 8 7 7 6 6 6 6 7 7 8 8 9 9 10 10 10 9 10 10 10 11 11 12 13 13 13 12 12 10 9 8 6 4 2 2 2 2 3 4 4 4 4 3 4 6 6 6 7 7 6 6 4 2 4 5 5 6 5 4 4
24 23 23 22 22 23 24 24 24 24 23 22 21 19 18 17 16 15 13 12 11 11 10 9 8 8 6 5 5 5 6 6 7 8 8 8 9 9 9 9 9 8 8 9 9 9 10 11 11 12 13 12 12 11 11 10 9 7 3 1 1 2 2 2 3 3 3 3 4 5 4 5 7 6 5 6 4 3 5 6 7 7 5 4 3
23 23 23 23 23 24 24 24 24 23 23 23 21 20 19 17 16 15 13 12 12 11 10 9 8 7 6 4 4 5 6 6 7 8 8 9 9 9 9 8 8 7 7 8 8 8 9 9 10 11 12 12 13 13 12 10 10 8 6 3 1 2 2 2 2 2 2 2 3 4 3 3 4 5 5 6 5 4 5 6 7 7 5 4 4
22 22 22 23 23 24 24 24 24 23 23 22 22 20 19 18 16 15 14 13 12 11 10 9 8 7 5 4 4 5 6 7 7 8 8 8 8 8 8 7 7 7 7 7 8 8 8 9 9 10 11 12 14 14 12 11 11 10 7 4 2 2 2 2 2 2 2 2 3 3 3 2 3 4 5 5 5 4 4 5 6 7 6 4 4
21 21 21 22 23 24 24 24 24 23 23 22 21 20 19 18 16 15 14 13 13 12 10 9 8 6 5 4 5 6 6 7 7 7 7 7 7 7 7 6 6 6 6 7 8 8 8 9 9 9 10 13 14 14 13 11 11 10 8 5 3 2 2 3 2 2 3 4 3 3 3 3 2 2 3 4 4 3 4 4 5 6 5 4 4
21 21 21 21 22 23 24 24 23 23 23 22 21 20 19 18 16 16 15 14 13 12 11 9 8 6 5 5 6 6 6 6 6 7 6 6 6 6 6 5 5 5 6 7 8 8 9 9 9 10 11 12 13 13 13 12 10 8 8 6 3 3 3 3 3 3 3 4 3 4 4 3 3 3 2 2 2 2 3 3 4 5 4 5 4
21 20 21 21 22 23 24 24 23 23 23 22 21 20 19 18 17 16 15 15 14 13 11 9 8 7 6 6 7 7 6 6 6 6 6 5 5 5 5 5 5 5 6 7 8 9 9 9 9 10 10 10 11 12 12 13 11 8 8 7 4 2 4 2 3 3 3 4 5 6 5 5 5 4 3 3 2 1 2 2 3 3 3 3 3
19 20 21 22 22 23 23 24 23 23 22 22 21 20 19 18 17 16 16 16 15 13 11 9 8 8 8 8 8 8 7 6 6 6 5 4 4 4 4 4 4 4 5 6 7 8 7 7 8 9 9 10 12 12 12 12 10 8 7 6 5 3 4 3 2 3 3 4 6 8 8 7 6 5 5 4 3 2 2 1 2 2 2 2 2
18 19 21 22 23 22 23 23 23 23 22 22 21 20 20 18 18 17 16 16 15 14 12 10 9 9 9 8 8 8 8 7 5 5 4 4 3 4 3 3 4 4 5 6 7 7 6 7 7 8 9 10 11 11 11 11 9 9 8 5 4 3 3 4 3 2 3 4 5 7 10 9 7 6 5 4 4 4 3 2 2 2 1 1 1
18 19 20 22 23 23 23 23 23 23 22 22 21 20 20 19 18 18 17 16 15 14 13 11 10 10 9 9 9 8 8 7 5 5 4 3 3 3 2 3 3 3 4 5 6 5 6 7 7 7 9 10 10 10 11 10 9 10 10 8 5 3 3 4 5 3 1 3 5 5 8 10 9 7 6 6 6 5 4 3 3 3 2 1 1
19 20 20 21 23 23 23 23 23 23 23 22 21 21 20 19 18 18 17 17 16 15 13 12 11 11 10 10 9 8 8 7 5 5 4 3 3 2 2 2 2 3 4 5 5 5 5 6 5 7 7 7 8 10 10 9 8 9 10 10 9 6 4 6 5 3 2 1 4 4 5 10 10 8 6 6 6 6 5 3 3 3 2 1 1
20 20 21 21 22 22 23 23 23 23 23 22 21 21 20 19 19 18 18 17 16 15 14 13 12 12 11 10 10 9 8 7 5 5 3 3 2 2 2 1 1 2 3 4 4 4 5 5 6 7 6 5 6 8 9 8 8 9 8 8 8 9 5 5 5 3 2 1 1 3 4 7 9 9 8 7 7 6 6 5 4 3 2 2 1
20 20 21 21 22 22 23 23 22 23 23 22 21 21 20 19 19 18 18 17 16 15 14 14 13 13 12 11 10 9 8 7 6 4 3 2 2 2 2 2 1 2 2 3 3 4 5 5 6 5 5 4 4 6 9 7 6 7 7 6 7 9 5 4 5 3 3 3 2 1 2 4 6 9 9 8 8 7 7 6 6 5 5 4 2
21 21 22 22 23 23 23 23 22 23 23 22 21 21 20 20 19 18 18 17 16 15 14 14 14 13 12 12 11 10 9 7 6 5 4 3 2 2 1 2 1 1 2 3 4 5 5 5 6 5 4 4 4 6 7 5 5 5 5 5 7 8 5 3 5 5 5 4 3 1 1 3 6 9 7 7 8 9 9 8 7 7 7 5 4
22 22 23 23 23 23 23 23 23 23 23 22 22 21 21 20 19 18 18 18 17 15 15 14 14 13 13 12 12 11 9 8 6 5 4 4 3 2 1 1 1 1 2 3 5 6 6 6 6 6 5 5 6 6 4 3 4 3 3 4 7 8 4 2 5 6 5 5 4 1 1 3 7 8 6 5 8 10 9 8 8 8 8 7 6
23 22 23 24 24 24 24 23 23 23 23 22 22 21 21 20 19 19 18 18 17 16 15 15 15 14 14 13 12 11 10 8 7 5 5 4 4 3 2 2 0 1 2 4 6 7 8 8 7 6 5 6 6 4 2 3 4 2 1 2 6 7 2 2 5 5 4 5 4 2 2 3 5 6 5 5 5 8 9 9 10 9 9 8 7
23 23 24 24 24 24 24 24 23 23 23 23 22 22 21 21 20 19 19 18 17 16 16 16 15 15 14 14 13 12 10 9 7 6 5 5 5 4 3 2 1 1 2 4 5 7 8 8 6 5 4 5 5 4 3 2 3 2 1 1 5 6 1 2 5 5 4 5 4 3 2 3 4 4 4 3 4 5 8 10 10 10 10 9 8
24 24 24 25 25 25 25 24 24 24 24 23 23 22 22 21 21 20 19 19 18 18 17 17 16 16 15 14 13 12 11 10 8 7 6 6 5 5 4 3 1 1 3 4 5 6 6 6 5 4 3 4 4 4 2 1 1 1 2 3 5 5 1 3 6 6 5 4 4 3 2 3 4 4 4 3 4 5 6 8 7 8 9 10 9
25 25 26 26 26 26 26 26 25 25 25 24 24 24 23 22 22 21 20 20 19 19 18 17 17 16 15 15 14 13 12 10 9 8 7 7 6 5 4 3 1 2 3 4 5 5 5 5 4 2 2 4 3 3 2 1 0 1 2 4 5 3 2 3 6 8 7 5 4 3 2 3 4 4 5 5 4 5 7 7 5 4 7 9 8
26 26 27 27 27 27 27 27 26 26 26 26 26 25 24 23 22 21 20 20 19 19 19 17 17 16 16 15 14 13 12 11 10 9 8 7 7 6 4 3 2 2 3 4 5 4 5 4 2 2 3 3 3 3 2 2 2 1 2 2 3 1 2 3 6 8 8 6 4 3 1 3 4 4 5 6 7 7 7 6 6 6 6 8 7
27 27 27 27 28 28 28 27 27 27 27 27 26 25 23 22 21 20 20 19 19 19 19 18 17 17 16 15 15 14 13 12 11 10 9 9 8 7 5 4 3 3 4 4 4 4 4 3 2 3 2 1 1 2 2 3 4 3 2 1 0 1 3 4 5 7 8 6 4 2 1 1 3 4 4 6 7 8 8 6 6 7 7 7 7
28 28 27 27 28 28 28 27 28 28 27 26 25 23 22 21 20 19 18 18 19 19 19 19 18 17 17 16 15 14 14 13 12 11 11 10 9 8 6 5 4 4 4 3 3 4 4 3 3 3 1 0 1 1 2 4 4 4 3 3 3 3 5 5 6 8 8 7 6 4 2 2 2 4 5 6 5 5 6 6 7 8 8 8 7
29 28 27 28 28 29 29 29 29 28 27 26 25 23 22 20 19 18 18 19 19 19 19 19 19 18 18 18 17 15 15 14 13 12 12 11 10 9 7 5 4 4 3 2 3 5 4 3 3 2 1 0 1 2 3 3 3 3 3 4 5 5 6 6 7 8 7 7 7 5 3 2 2 4 5 5 4 4 4 5 7 8 8 9 8
30 29 29 29 29 29 29 29 29 28 27 26 24 23 22 22 21 20 20 20 20 20 20 20 20 19 19 19 18 16 15 14 14 13 13 12 11 9 8 6 5 3 2 4 6 6 6 4 3 3 2 0 1 2 2 2 2 3 4 4 6 6 6 6 7 8 8 8 7 6 3 2 1 3 4 4 3 3 1 2 3 5 7 8 9
31 30 30 30 30 29 29 28 28 28 27 26 25 24 24 23 23 23 23 23 22 21 20 19 19 19 19 19 18 17 16 15 15 14 13 13 12 10 8 7 5 3 4 6 8 8 7 5 4 4 2 1 1 2 2 2 1 1 2 4 5 5 5 6 7 6 7 7 7 6 4 2 1 3 4 4 4 3 1 0 0 2 4 5 7
31 30 30 30 29 29 29 28 28 29 28 26 26 25 24 24 24 24 23 23 21 19 17 17 17 17 17 17 17 17 16 15 15 15 14 14 13 11 9 8 6 4 6 8 9 9 8 6 5 4 2 2 2 2 3 2 2 1 1 2 3 4 5 6 6 5 5 6 6 6 4 2 2 3 3 4 5 4 3 1 0 1 2 3 5
31 30 30 30 29 29 29 29 29 30 29 28 27 26 25 25 24 23 22 21 19 17 15 15 15 15 16 16 16 17 17 16 16 16 15 15 14 12 11 9 7 6 9 10 10 9 8 7 6 4 3 3 3 3 3 3 4 4 3 2 1 3 4 4 5 5 5 6 5 5 4 3 2 3 4 5 6 6 4 2 1 1 1 1 2
31 31 31 30 29 29 30 30 30 30 30 28 27 26 26 25 23 23 22 20 19 17 15 15 15 16 16 16 16 17 17 17 17 17 17 16 15 13 12 10 8 9 11 12 12 10 9 8 7 5 4 4 4 4 4 4 5 5 5 4 2 3 3 3 4 3 2 4 3 3 3 3 3 3 4 5 6 6 5 3 3 2 1 1 2
31 31 30 29 29 30 30 31 31 30 30 29 28 27 26 25 23 22 21 19 18 17 17 17 17 17 17 17 17 17 17 18 18 18 18 17 16 15 13 12 10 11 12 13 14 12 11 10 8 6 5 4 4 4 4 4 5 6 5 4 3 3 3 3 3 2 1 2 2 1 1 2 3 3 4 6 7 7 8 6 5 4 4 3 3
30 31 31 31 31 31 31 31 31 31 30 29 29 28 27 26 25 23 21 19 18 18 18 18 17 16 15 15 15 15 15 16 17 18 18 17 17 16 15 13 12 12 14 15 16 14 12 11 9 7 6 4 4 4 5 6 6 6 6 5 4 4 3 3 2 2 1 1 1 0 2 3 3 4 5 7 8 9 9 8 7 6 4 4 4
29 31 32 33 32 31 31 31 32 32 31 31 30 30 29 28 27 24 22 20 20 19 19 18 16 15 13 12 12 12 13 13 15 16 16 16 17 17 16 15 14 14 16 17 17 16 14 12 10 9 7 5 4 4 5 6 6 7 7 6 6 5 4 3 2 2 2 1 1 1 2 3 4 5 6 7 9 9 9 9 8 8 7 5 5
Wind_Direction
128 129 129 134 139 141 141 142 142 143 140 140 140 139 139 137 135 135 134 130 124 119 115 115 117 118 116 114 114 113 110 107 105 105 107 108 108 111 115 121 122 119 117 115 114 114 112 107 100 97 91 88 84 75 61 51 49 54 53 36 51 94 98 107 121 128 135 139 144 148 153 165 179 189 193 198 199 199 198 197 196 193 200 206 209
132 132 129 132 137 138 139 142 145 145 141 140 141 141 140 138 137 137 134 127 122 118 117 119 119 117 114 113 113 111 108 104 103 104 106 107 109 114 118 121 120 119 118 118 117 115 112 107 102 99 95 96 92 77 66 61 58 62 57 44 63 100 99 103 113 122 126 128 131 131 134 144 157 172 184 190 191 191 192 193 190 184 188 194 205
136 137 133 134 137 139 140 144 146 144 141 141 144 145 142 139 140 137 130 125 121 119 119 119 118 116 115 113 112 109 104 101 101 102 101 103 107 111 113 112 112 115 118 119 118 114 109 105 104 106 106 105 99 84 76 71 66 67 63 52 70 106 105 102 110 117 120 119 123 124 124 128 134 146 158 171 179 182 186 189 182 175 183 185 186
138 140 137 137 139 140 142 143 144 144 143 144 148 147 143 142 140 134 127 123 121 119 118 117 118 116 114 112 108 104 100 97 97 96 95 96 99 103 103 100 101 104 107 108 109 109 106 105 108 112 113 108 103 94 86 79 70 69 69 60 74 109 113 105 111 117 118 119 121 123 121 120 121 125 135 150 163 167 172 180 179 174 177 174 171
137 141 138 138 138 139 140 140 143 146 146 148 149 146 144 142 136 130 125 121 118 116 116 117 116 113 111 107 102 98 94 92 92 91 90 90 91 93 93 92 93 94 95 96 98 102 107 111 115 116 112 106 104 99 91 82 76 70 71 68 76 109 119 111 114 117 119 119 119 122 121 118 117 115 121 137 145 149 158 165 173 173 169 167 170
138 142 140 141 139 140 142 141 143 146 149 149 147 146 144 140 132 127 122 118 116 116 117 116 112 109 105 101 96 92 90 89 89 89 88 87 87 88 88 87 88 89 89 91 94 100 106 110 111 110 107 106 107 102 92 84 81 74 73 74 79 105 123 119 117 118 120 120 120 122 121 115 108 100 106 121 125 125 137 148 157 162 159 162 163
143 144 142 143 140 143 147 145 144 146 148 147 146 147 144 135 129 125 119 116 116 117 115 112 108 104 99 95 92 89 89 88 88 88 85 83 84 85 85 86 86 89 91 92 94 98 101 102 102 100 98 99 101 98 89 83 82 78 76 78 82 98 118 121 119 119 120 122 121 119 116 111 101 93 100 108 112 111 116 126 132 144 151 157 156
146 144 142 143 141 145 150 148 146 146 146 146 148 147 140 131 126 121 118 117 118 116 112 109 104 99 94 90 89 90 89 89 87 85 82 81 81 83 84 84 86 89 92 92 93 95 95 96 96 95 92 92 93 90 85 82 81 80 78 81 86 94 108 117 117 118 121 122 120 117 115 111 103 95 97 101 106 108 108 111 114 122 132 143 149
147 145 142 143 144 146 149 148 147 146 146 147 148 144 135 128 124 120 118 119 117 114 110 106 101 95 90 88 89 89 89 89 86 82 80 80 81 83 84 85 88 90 91 92 93 93 92 91 91 92 91 89 90 88 86 83 80 82 81 82 90 96 103 112 116 116 116 114 114 116 116 113 106 100 96 98 102 105 104 102 104 107 113 124 133
149 146 144 143 145 147 147 146 146 145 146 148 147 140 131 125 122 120 120 119 116 113 111 106 99 92 86 86 86 87 87 86 83 80 79 80 83 85 87 88 90 91 90 90 92 92 92 91 91 91 90 88 87 87 86 84 79 79 83 83 88 97 105 111 116 118 114 113 115 115 115 109 103 103 99 98 101 106 108 106 105 103 104 109 114
149 147 146 145 146 148 147 147 146 146 146 148 145 136 128 124 122 121 120 118 116 113 110 106 98 90 85 84 84 86 86 85 82 80 80 81 84 86 88 89 89 90 89 88 89 90 90 89 89 88 87 85 83 83 81 79 78 76 79 83 86 93 104 111 115 121 122 119 118 116 119 114 105 105 102 99 100 105 112 112 110 106 106 107 107
149 147 147 147 148 149 149 148 148 147 149 149 143 133 127 126 124 122 120 118 116 113 110 106 97 90 85 82 84 88 88 87 84 82 82 83 83 85 87 89 90 88 88 87 87 87 88 86 85 84 83 82 80 80 78 74 76 79 81 84 86 90 98 107 112 117 119 117 118 120 124 116 110 107 105 102 101 103 107 110 110 109 112 112 111
150 148 149 148 148 151 150 149 150 150 152 150 140 131 129 127 125 122 120 118 115 113 110 105 97 90 84 84 88 91 92 91 88 85 84 83 83 84 86 87 86 85 83 83 84 85 86 87 85 83 81 79 76 74 75 74 74 79 83 82 85 92 97 101 108 113 115 117 117 116 109 104 106 109 108 107 104 103 102 102 107 112 115 112 115
150 150 150 150 150 153 152 152 153 154 154 148 138 132 131 129 126 123 121 119 115 113 110 105 97 91 87 88 92 95 95 92 89 87 85 84 83 83 83 81 79 78 78 78 81 83 84 85 84 82 78 75 74 71 76 81 79 80 82 79 79 90 99 99 102 109 113 118 121 117 102 96 105 108 108 112 110 109 105 102 105 113 114 113 121
150 152 153 152 153 155 155 155 156 156 154 147 140 136 134 131 127 125 123 119 116 114 111 106 99 93 92 92 96 97 94 91 88 86 86 84 81 78 76 76 76 76 78 79 81 83 82 81 81 81 80 78 76 75 78 83 84 84 85 84 79 83 96 101 100 101 105 111 115 112 104 102 109 108 112 115 112 113 112 103 101 113 123 125 130
152 154 155 155 156 157 158 158 158 157 154 150 144 139 137 133 130 127 125 122 118 117 115 110 102 96 97 98 98 97 94 90 87 84 83 82 77 73 75 78 78 79 80 81 81 80 78 76 77 78 79 77 73 71 72 77 82 87 89 90 85 81 89 100 103 101 103 108 106 103 106 116 115 110 117 115 110 106 101 94 89 105 137 146 145
155 156 156 159 158 159 161 160 160 159 157 154 148 143 140 136 133 131 129 126 122 122 120 115 106 102 101 101 98 97 94 88 83 80 79 79 74 73 78 81 81 83 83 81 77 72 70 69 70 71 73 72 68 66 65 70 79 86 89 91 90 81 80 91 103 104 103 107 107 102 106 128 135 117 115 113 113 98 87 74 71 91 145 174 172
158 159 159 161 161 162 163 162 163 163 161 158 153 147 144 140 137 135 134 131 128 127 126 121 112 105 102 100 97 93 88 82 77 74 78 79 78 81 84 85 84 85 84 79 74 67 64 64 65 67 67 66 66 66 66 69 78 84 82 83 86 83 79 81 93 102 104 103 104 106 114 138 144 119 108 107 104 86 95 93 119 183 209 188 187
161 162 162 163 164 164 165 165 165 166 165 162 158 152 148 145 142 141 140 136 134 134 133 128 116 108 102 98 94 89 83 78 75 76 81 85 87 89 88 86 86 85 84 79 73 66 63 64 65 67 66 64 63 65 68 70 75 79 75 75 76 84 91 88 86 93 100 102 105 113 126 137 131 116 111 113 101 81 147 220 201 188 181 160 174
164 164 165 167 166 167 167 167 167 167 167 165 161 156 152 149 147 146 144 141 141 142 142 135 123 113 105 97 93 89 83 79 81 84 87 91 95 95 92 88 86 84 81 77 73 68 65 66 66 65 63 62 62 61 63 66 69 68 72 84 75 77 95 97 95 93 92 103 115 116 121 129 124 116 115 116 122 145 143 140 130 146 142 133 153
167 166 168 169 168 169 169 168 169 169 169 168 165 160 156 153 152 151 148 148 148 151 150 141 131 123 115 103 97 91 89 88 89 92 94 95 97 96 93 87 84 81 78 77 73 67 64 64 63 60 57 57 59 58 54 47 39 31 42 99 87 79 95 105 113 111 108 113 117 112 110 120 122 117 118 121 120 106 106 103 110 133 140 128 134
169 168 170 171 171 171 170 170 170 171 171 170 167 164 160 157 156 154 152 153 155 157 155 147 138 133 128 116 104 100 101 100 98 98 99 99 98 96 91 85 81 78 77 77 72 64 57 57 58 56 55 54 54 56 53 37 18 13 26 70 142 131 109 118 130 125 126 122 106 105 105 113 121 122 120 118 106 80 94 104 112 125 135 130 126
171 171 171 172 172 172 172 171 171 172 172 171 168 166 163 161 159 157 157 158 160 163 159 151 144 140 138 130 119 116 114 112 109 106 105 102 98 95 90 85 78 74 72 70 68 59 52 51 51 52 53 54 52 50 51 38 16 17 36 46 103 155 152 135 156 159 135 120 111 111 108 106 113 116 113 110 104 86 90 101 113 123 132 135 125
173 173 173 172 173 173 173 172 172 173 173 172 170 168 166 164 162 161 162 164 166 168 163 156 150 147 144 142 138 132 126 121 117 113 108 102 97 92 87 83 77 70 64 64 64 58 53 51 49 50 52 53 52 48 46 37 22 19 31 42 57 119 163 164 184 195 177 167 150 135 129 123 99 100 106 110 115 106 90 92 103 114 120 122 112
175 175 175 173 173 173 173 173 173 173 174 173 171 170 167 166 166 165 166 168 171 171 168 162 156 153 149 151 150 144 137 130 124 118 112 105 97 90 83 78 74 69 60 60 60 57 54 51 48 47 50 51 52 51 45 37 29 20 20 34 57 92 147 173 192 207 207 202 177 160 156 148 128 120 117 112 127 124 104 92 88 95 100 99 97
178 177 175 174 174 173 174 174 175 174 174 174 172 171 170 169 170 169 170 172 174 174 173 169 162 158 160 162 159 155 149 141 133 123 117 110 100 92 85 78 72 65 58 57 57 56 51 47 45 43 46 44 45 50 45 35 32 24 18 21 36 89 129 170 187 189 212 215 207 200 189 176 161 162 156 131 140 128 110 101 87 89 88 87 90
181 177 174 175 176 175 176 176 176 175 175 175 174 174 173 173 174 173 174 175 177 179 179 175 168 167 171 172 167 163 159 153 143 130 124 116 107 99 91 80 69 58 55 57 55 54 48 46 44 40 45 39 36 45 39 30 27 23 19 17 22 79 125 154 198 187 204 221 224 223 217 207 186 174 183 171 166 133 110 107 95 86 79 78 84
183 178 175 176 178 178 178 178 177 176 177 176 175 176 176 177 177 178 178 178 180 181 182 180 176 176 178 179 173 169 167 162 151 139 131 121 112 101 93 80 66 54 55 58 57 56 51 52 48 37 37 35 36 39 32 25 20 16 9 10 22 47 121 137 191 186 198 224 229 225 219 218 204 188 191 185 184 171 139 130 119 105 91 82 76
183 180 178 177 178 180 181 179 178 177 178 178 178 179 180 180 181 181 182 181 181 183 186 185 184 185 185 185 181 176 172 167 158 146 137 126 112 98 94 81 69 59 58 60 58 56 47 44 45 39 34 33 38 35 31 26 10 2 353 351 28 40 105 134 146 157 194 229 239 231 217 215 213 204 200 196 198 190 180 174 165 164 141 135 91
184 183 182 179 179 182 183 181 180 180 180 180 181 183 183 184 183 183 184 183 184 187 189 188 189 190 190 190 189 184 177 172 165 155 151 142 122 109 100 79 70 63 62 63 57 50 43 39 35 31 27 29 35 30 30 27 2 349 343 343 360 22 69 108 111 109 156 234 236 239 224 215 213 213 211 210 212 207 196 189 195 204 193 175 172
186 185 184 183 182 182 183 183 182 182 183 183 184 186 186 185 185 185 185 186 187 190 191 191 192 194 195 196 196 194 186 184 180 172 168 152 139 134 114 75 64 59 56 53 45 33 34 35 21 18 18 18 27 29 27 20 1 346 343 351 347 347 46 86 90 83 66 263 223 217 228 220 217 221 220 219 221 220 211 205 216 218 217 216 220
188 187 186 186 185 184 184 184 185 185 184 185 186 187 187 186 186 186 187 188 192 193 193 193 195 196 198 199 200 201 197 198 196 190 184 167 161 157 135 108 78 69 54 42 32 17 18 16 7 18 24 11 9 22 25 12 0 350 343 353 337 325 6 86 98 95 92 47 195 183 213 217 224 231 228 227 227 229 227 223 226 221 216 229 223
189 189 189 188 186 185 185 186 187 186 185 186 188 188 187 186 188 189 189 192 196 196 196 197 197 197 199 201 202 204 206 209 209 204 197 185 183 175 155 145 125 91 61 42 19 4 7 2 2 18 23 16 7 13 15 358 349 349 339 339 317 310 337 82 109 118 122 104 85 127 215 197 223 242 240 237 232 231 235 228 225 224 220 218 221
190 191 190 189 188 187 186 187 188 186 186 188 188 187 187 187 190 192 192 196 199 199 201 201 199 199 201 203 205 207 211 215 216 209 200 198 195 185 169 152 142 91 49 16 358 356 358 351 353 5 2 1 8 13 10 344 331 336 329 322 301 301 332 65 113 119 118 119 109 97 226 180 218 246 249 253 251 241 235 227 224 226 229 230 227
191 192 191 190 190 190 189 188 188 186 188 190 189 188 187 189 192 195 196 200 202 202 204 204 202 201 203 205 206 209 212 213 213 205 194 195 198 192 172 161 151 65 24 354 351 348 349 350 349 355 351 341 345 1 12 342 330 320 319 313 292 296 326 59 104 99 97 110 123 146 223 191 213 232 223 237 263 259 248 241 239 238 240 246 243
191 191 192 193 192 192 192 190 189 188 190 190 190 190 190 192 195 198 200 203 204 204 206 206 204 204 206 208 208 209 211 209 207 201 191 190 194 190 179 179 163 39 1 348 349 344 344 349 352 354 341 332 330 321 315 338 341 313 300 314 292 294 314 95 102 96 100 113 128 171 228 223 216 216 204 201 235 263 269 257 248 245 246 252 250
192 192 193 194 194 194 193 192 192 191 192 192 192 193 194 196 198 201 203 205 205 205 207 207 206 207 209 211 211 211 211 208 205 202 194 191 192 186 185 194 194 349 343 342 340 340 341 339 345 355 330 326 330 306 299 334 332 304 298 297 280 281 290 122 125 120 116 119 139 171 202 246 229 213 216 207 199 245 279 274 256 249 251 254 257
193 194 195 195 196 196 195 195 194 194 195 195 196 197 198 200 202 205 206 207 206 206 209 208 209 210 211 213 214 214 213 211 208 203 196 192 192 189 188 193 199 296 324 328 328 334 334 325 330 350 326 311 316 307 313 304 252 269 301 267 252 253 218 149 141 129 119 130 152 165 204 244 239 228 228 227 205 209 250 271 269 264 263 261 262
195 196 197 197 198 197 197 197 196 196 197 197 199 200 202 203 206 208 209 210 209 210 211 210 212 213 212 215 216 216 215 213 210 204 199 194 193 194 193 195 225 286 307 314 322 327 320 311 308 310 293 289 297 301 316 330 247 177 229 255 251 239 184 160 144 132 129 140 152 153 224 262 260 255 244 239 235 221 226 240 245 250 268 270 265
197 198 199 199 200 199 199 199 198 199 200 201 202 204 205 206 208 211 212 212 212 213 214 213 214 214 214 216 217 217 216 215 213 209 205 200 201 201 200 209 241 275 300 308 314 310 294 289 277 260 261 279 312 330 351 26 43 141 190 231 255 221 140 147 140 133 129 134 147 147 192 291 291 276 264 249 240 237 236 235 231 224 243 263 266
200 201 201 202 202 202 201 201 201 202 203 205 206 207 208 209 211 213 214 215 215 215 216 216 217 217 216 218 219 218 218 218 216 214 210 205 207 207 209 225 245 272 295 301 298 280 262 252 233 234 258 302 344 346 12 56 70 82 110 126 279 69 101 121 129 133 133 134 145 153 174 266 295 290 283 269 249 238 234 231 237 236 239 254 263
203 203 203 204 204 205 204 203 204 205 206 207 208 209 210 210 211 213 214 214 214 214 215 216 217 218 218 219 221 221 220 221 218 215 211 208 210 210 215 230 246 273 294 293 261 239 231 230 218 213 234 13 44 34 40 58 77 88 96 103 96 81 92 106 117 131 141 145 149 155 168 195 277 292 289 285 275 253 235 225 235 241 248 256 259
205 206 205 205 206 206 205 205 206 207 208 208 209 208 209 209 209 210 210 211 211 212 214 215 217 218 218 220 222 223 223 222 219 214 211 209 211 213 218 231 248 277 291 246 215 210 205 212 209 185 170 166 52 48 47 48 73 109 116 104 103 103 102 105 112 125 139 153 154 147 152 185 260 290 294 296 299 283 250 237 244 246 251 257 258
207 207 207 206 207 206 206 207 207 207 208 208 207 207 207 206 206 206 206 207 208 209 211 213 215 215 217 220 223 224 223 222 219 214 211 212 212 215 221 231 248 268 245 203 202 197 191 199 192 161 146 123 23 19 25 25 61 125 128 113 113 116 112 112 116 118 124 138 146 141 153 179 240 290 304 323 335 326 271 242 257 255 256 260 263
210 209 209 209 208 207 206 207 207 208 208 207 206 205 206 205 204 205 205 206 207 208 210 211 213 215 218 222 225 225 223 220 219 216 213 215 216 218 223 231 244 245 212 205 201 191 187 192 181 161 146 68 27 17 18 7 6 118 139 130 126 125 124 126 123 115 117 127 134 135 151 175 226 292 310 326 333 346 358 12 253 260 265 270 273
213 212 212 212 211 209 207 206 206 207 208 206 205 205 205 205 206 207 208 211 212 213 214 214 216 219 221 224 226 226 223 220 220 218 216 217 217 219 222 231 239 228 213 207 200 194 190 187 178 167 146 89 67 51 44 34 30 39 103 136 136 131 134 136 128 116 120 129 134 136 149 181 223 279 299 306 310 323 333 322 218 262 271 280 283
215 213 213 214 213 211 208 207 207 207 208 207 207 206 205 206 208 210 212 215 216 217 217 216 218 221 223 225 226 226 224 220 220 219 218 217 217 218 220 228 233 223 215 206 198 200 196 187 181 170 145 110 92 79 65 62 67 67 73 95 128 129 129 129 123 119 127 132 138 147 160 183 216 263 279 293 302 310 321 320 324 334 257 284 298
217 214 215 215 214 213 211 209 208 209 209 208 209 209 208 208 210 211 213 213 212 211 210 209 211 214 219 223 224 226 226 223 221 220 219 218 217 218 220 224 230 222 213 204 199 199 193 187 185 172 150 123 99 84 73 69 77 79 84 95 110 123 123 115 116 124 135 136 144 155 166 186 204 236 268 290 295 295 301 296 312 350 11 352 342
221 218 217 216 215 214 213 211 210 211 212 211 211 211 209 209 210 212 213 211 207 204 203 203 206 209 214 220 223 226 227 225 223 221 219 219 216 217 220 222 226 220 210 203 199 194 189 189 189 178 163 137 104 87 81 76 79 81 83 90 93 100 106 105 114 122 120 131 139 141 217 234 229 236 258 275 279 280 285 286 297 328 348 347 339
225 222 219 218 217 216 214 213 213 213 214 213 212 211 210 209 210 211 211 210 207 204 204 206 210 213 217 222 226 229 231 228 227 224 221 220 216 216 219 219 222 218 208 201 196 192 191 193 190 185 176 152 119 99 95 89 85 84 81 81 78 77 82 84 91 94 81 91 108 282 267 261 267 265 261 267 271 274 280 286 293 306 325 331 320
227 224 221 219 218 218 216 215 215 215 215 214 212 211 210 210 209 210 211 211 210 209 208 212 217 224 228 233 236 239 241 237 233 230 225 220 216 214 216 217 219 215 204 198 195 193 195 194 190 189 184 166 144 121 106 94 83 79 77 76 72 67 65 59 47 37 30 28 356 296 266 267 273 262 262 270 273 275 280 286 293 302 313 313 302